Date String (YYYY-MM-DD hh:mm:ss) UTC,Instrument flags,absolute air pressure of the measurement (hPa),sample flow rate (lpm),inlet stack bypass flow (lpm),air temperature of the measurement (°C),ambient temperature measured by the external sensor (°C),aerosol sample conditioner tube jacket temperature (°C),OPC LED temperature (°C),internal box temperature (°C),relative humidity of the measurement (%),span deviation,mass concentration of particles derived from Lorenz-Mie calculation of OPC scattering (μg/m³),mass concentration of particles derived from Lorenz-Mie calculation of OPC scattering (μg/m³),mass concentration of particles derived from Lorenz-Mie calculation of OPC scattering (μg/m³)
DateTimeUTC,F1_M11,P_M11,Q1_M11,Q2_M11,T1_M11,T2_M11,T3_M11,T4_M11,T5_M11,U1_M11,ZSPAN_M11,X2_M11,X0_M11,X1_M11
2024-03-05 18:00:00,SystemResetWarning,0828.4,5.00,000.00,018.3,017.5,000.0,026.9,020.0,12.7,0000.0,0002.68,0011.67,0001.56
2024-03-05 18:01:00,SystemResetWarning,0828.4,5.01,000.00,018.3,017.5,000.0,026.9,020.0,12.7,0000.0,0002.72,0011.18,0001.56
2024-03-05 18:02:00,SystemResetWarning,0828.3,5.00,000.00,018.3,017.5,000.0,026.9,020.0,13.0,0000.0,0002.74,0010.37,0001.57
2024-03-05 18:03:00,SystemResetWarning,0828.3,4.99,000.00,018.3,017.5,000.0,026.9,020.0,13.1,0000.0,0002.71,0010.45,0001.56
2024-03-05 18:04:00,SystemResetWarning,0828.3,4.99,000.00,018.3,017.5,000.0,026.9,020.0,13.3,0000.0,0002.72,0010.48,0001.56
2024-03-05 18:05:00,SystemResetWarning,0828.3,5.00,000.00,018.3,017.5,000.0,026.9,020.0,13.2,0000.0,0002.71,0009.94,0001.55
2024-03-05 18:06:00,SystemResetWarning,0828.3,5.01,000.00,018.3,017.5,000.0,026.9,020.0,12.8,0000.0,0002.69,0009.31,0001.54
2024-03-05 18:07:00,SystemResetWarning,0828.3,5.01,000.00,018.3,017.5,000.0,026.9,020.0,12.9,0000.0,0002.78,0008.92,0001.52
2024-03-05 18:08:00,SystemResetWarning,0828.2,5.00,000.00,018.3,017.5,000.0,026.9,020.0,12.9,0000.0,0002.84,0009.25,0001.53
2024-03-05 18:09:00,SystemResetWarning,0828.3,4.98,000.00,018.3,017.5,000.0,026.9,020.0,13.0,0000.0,0002.81,0009.34,0001.53
2024-03-05 18:10:00,SystemResetWarning,0828.3,5.01,000.00,018.3,017.5,000.0,026.9,020.0,12.9,0000.0,0002.82,0009.73,0001.51
2024-03-05 18:11:00,SystemResetWarning,0828.2,5.00,000.00,018.3,017.5,000.0,026.9,020.0,12.9,0000.0,0002.89,0010.42,0001.50
2024-03-05 18:12:00,SystemResetWarning,0828.2,5.01,000.00,018.3,017.5,000.0,026.9,020.0,12.9,0000.0,0002.86,0010.30,0001.50
2024-03-05 18:13:00,SystemResetWarning,0828.2,5.00,000.00,018.3,017.4,000.0,026.9,020.0,13.0,0000.0,0002.87,0009.88,0001.50
2024-03-05 18:14:00,SystemResetWarning,0828.2,5.00,000.00,018.3,017.4,000.0,026.9,020.0,13.2,0000.0,0002.91,0011.04,0001.53
2024-03-05 18:15:00,SystemResetWarning,0828.2,4.99,000.00,018.3,017.4,000.0,026.9,020.0,13.3,0000.0,0002.96,0011.05,0001.53
2024-03-05 18:16:00,SystemResetWarning,0828.1,5.00,000.00,018.3,017.4,000.0,026.9,020.0,13.0,0000.0,0003.00,0011.58,0001.54
2024-03-05 18:17:00,SystemResetWarning,0828.1,5.00,000.00,018.3,017.4,000.0,026.9,020.0,13.1,0000.0,0003.06,0013.62,0001.55
2024-03-05 18:18:00,SystemResetWarning,0828.1,5.00,000.00,018.3,017.4,000.0,026.9,020.0,13.1,0000.0,0003.00,0013.22,0001.56
2024-03-05 18:19:00,SystemResetWarning,0828.1,5.00,000.00,018.3,017.5,000.0,026.9,020.0,13.0,0000.0,0002.88,0012.60,0001.56
2024-03-05 18:20:00,SystemResetWarning,0828.1,5.01,000.00,018.3,017.5,000.0,026.9,020.0,13.1,0000.0,0002.87,0012.45,0001.56
2024-03-05 18:21:00,SystemResetWarning,0828.1,5.01,000.00,018.3,017.5,000.0,026.9,020.0,13.1,0000.0,0002.86,0012.09,0001.57
2024-03-05 18:22:00,SystemResetWarning,0828.1,5.00,000.00,018.3,017.5,000.0,026.9,020.0,13.1,0000.0,0002.83,0011.63,0001.59
2024-03-05 18:23:00,SystemResetWarning,0828.1,4.99,000.00,018.3,017.5,000.0,026.9,020.0,13.2,0000.0,0002.84,0011.04,0001.61
2024-03-05 18:24:00,SystemResetWarning,0828.0,4.99,000.00,018.3,017.5,000.0,026.9,020.0,13.1,0000.0,0002.77,0011.01,0001.61
2024-03-05 18:25:00,SystemResetWarning,0827.9,5.00,000.00,018.3,017.5,000.0,026.9,020.0,13.0,0000.0,0002.74,0010.57,0001.59
2024-03-05 18:26:00,SystemResetWarning,0827.9,4.99,000.00,018.3,017.5,000.0,026.9,020.0,13.1,0000.0,0002.72,0010.26,0001.60
2024-03-05 18:27:00,SystemResetWarning,0827.8,5.00,000.00,018.3,017.5,000.0,026.9,020.0,13.2,0000.0,0002.69,0010.09,0001.62
2024-03-05 18:28:00,SystemResetWarning,0827.8,5.00,000.00,018.3,017.5,000.0,026.9,020.0,13.4,0000.0,0002.69,0008.86,0001.62
2024-03-05 18:29:00,SystemResetWarning,0827.8,4.99,000.00,018.3,017.5,000.0,026.9,020.0,13.3,0000.0,0002.76,0008.97,0001.62
2024-03-05 18:30:00,SystemResetWarning,0827.8,5.00,000.00,018.3,017.5,000.0,026.9,020.0,13.3,0000.0,0002.83,0009.30,0001.63
2024-03-05 18:31:00,SystemResetWarning,0827.8,5.00,000.00,018.3,017.5,000.0,026.9,020.0,13.4,0000.0,0002.89,0009.43,0001.64
2024-03-05 18:32:00,SystemResetWarning,0827.7,5.00,000.00,018.3,017.5,000.0,026.9,020.0,13.3,0000.0,0002.96,0010.30,0001.67
2024-03-05 18:33:00,SystemResetWarning,0827.7,5.01,000.00,018.3,017.5,000.0,026.9,020.0,13.4,0000.0,0003.00,0010.69,0001.67
2024-03-05 18:34:00,SystemResetWarning,0827.7,5.01,000.00,018.3,017.5,000.0,026.9,020.0,13.4,0000.0,0003.08,0011.43,0001.68
2024-03-05 18:35:00,SystemResetWarning,0827.7,4.99,000.00,018.3,017.5,000.0,026.8,020.0,13.6,0000.0,0003.15,0011.73,0001.69
2024-03-05 18:36:00,SystemResetWarning,0827.7,4.99,000.00,018.3,017.5,000.0,026.8,020.0,13.6,0000.0,0003.17,0011.07,0001.70
2024-03-05 18:37:00,SystemResetWarning,0827.7,5.00,000.00,018.3,017.5,000.0,026.8,020.0,13.4,0000.0,0003.14,0010.68,0001.69
2024-03-05 18:38:00,SystemResetWarning,0827.7,5.00,000.00,018.3,017.5,000.0,026.9,020.0,13.3,0000.0,0003.13,0010.92,0001.68
2024-03-05 18:39:00,SystemResetWarning,0827.7,5.00,000.00,018.3,017.5,000.0,026.9,020.0,13.4,0000.0,0003.14,0011.01,0001.68
2024-03-05 18:40:00,SystemResetWarning,0827.7,5.00,000.00,018.3,017.5,000.0,026.9,020.0,13.3,0000.0,0003.12,0011.31,0001.69
2024-03-05 18:41:00,SystemResetWarning,0827.8,5.00,000.00,018.3,017.5,000.0,026.9,020.0,13.3,0000.0,0003.11,0011.53,0001.70
2024-03-05 18:42:00,SystemResetWarning,0827.7,5.00,000.00,018.3,017.5,000.0,026.9,020.0,13.3,0000.0,0003.08,0011.50,0001.70
2024-03-05 18:43:00,SystemResetWarning,0827.7,5.01,000.00,018.3,017.5,000.0,026.9,020.0,13.4,0000.0,0003.03,0011.78,0001.68
2024-03-05 18:44:00,SystemResetWarning,0827.7,5.00,000.00,018.3,017.5,000.0,026.9,020.0,13.6,0000.0,0003.04,0011.59,0001.68
2024-03-05 18:45:00,SystemResetWarning,0827.6,5.00,000.00,018.3,017.5,000.0,026.9,020.0,13.5,0000.0,0003.00,0011.16,0001.70
2024-03-05 18:46:00,SystemResetWarning,0827.6,5.01,000.00,018.3,017.5,000.0,026.9,020.0,13.6,0000.0,0002.99,0011.72,0001.72
2024-03-05 18:47:00,SystemResetWarning,0827.6,5.01,000.00,018.3,017.5,000.0,026.9,020.0,13.5,0000.0,0002.95,0012.35,0001.73
2024-03-05 18:48:00,SystemResetWarning,0827.6,5.00,000.00,018.3,017.5,000.0,026.9,020.0,13.3,0000.0,0003.01,0012.73,0001.75
2024-03-05 18:49:00,SystemResetWarning,0827.6,4.99,000.00,018.3,017.5,000.0,026.9,020.0,13.4,0000.0,0002.99,0011.94,0001.77
2024-03-05 18:50:00,SystemResetWarning,0827.6,5.00,000.00,018.3,017.5,000.0,026.9,020.0,13.4,0000.0,0002.95,0011.76,0001.79
2024-03-05 18:51:00,SystemResetWarning,0827.5,5.00,000.00,018.3,017.5,000.0,026.9,020.0,13.3,0000.0,0002.98,0012.01,0001.80
2024-03-05 18:52:00,SystemResetWarning,0827.5,4.99,000.00,018.3,017.5,000.0,026.9,020.0,13.3,0000.0,0002.94,0011.74,0001.80
2024-03-05 18:53:00,SystemResetWarning,0827.5,5.01,000.00,018.3,017.5,000.0,026.9,020.0,13.5,0000.0,0002.97,0012.07,0001.81
2024-03-05 18:54:00,SystemResetWarning,0827.6,5.00,000.00,018.3,017.4,000.0,026.9,020.0,13.5,0000.0,0003.06,0011.80,0001.83
2024-03-05 18:55:00,SystemResetWarning,0827.4,5.00,000.00,018.3,017.4,000.0,026.9,020.0,13.5,0000.0,0003.02,0011.80,0001.83
2024-03-05 18:56:00,SystemResetWarning,0827.4,5.01,000.00,018.3,017.4,000.0,026.9,020.0,13.5,0000.0,0003.03,0013.46,0001.81
2024-03-05 18:57:00,SystemResetWarning,0827.4,4.99,000.00,018.3,017.4,000.0,026.9,020.0,13.4,0000.0,0003.00,0014.01,0001.80
2024-03-05 18:58:00,SystemResetWarning,0827.4,4.99,000.00,018.3,017.4,000.0,026.8,020.0,13.4,0000.0,0002.97,0013.97,0001.80
2024-03-05 18:59:00,SystemResetWarning,0827.4,5.00,000.00,018.3,017.4,000.0,026.9,020.0,13.4,0000.0,0002.99,0014.87,0001.79
